Regional Weather Roundup
Issued by NWS Green Bay, WI

Home | Current Version | Previous Version | Text Only | Print | Product List | Glossary On
Versions: 1 2 3 4 5 6 7 8 9 10 11 12 13 14 15 16 17 18 19 20 21 22 23 24 25 26 27 28 29 30 31 32 33 34 35 36 37 38 39 40 41 42 43 44 45 46 47 48 49 50
063
ASUS43 KGRB 250200
RWRGRB

NORTH-CENTRAL AND NORTHEAST WISCONSIN REGIONAL WEATHER ROUNDUP
NATIONAL WEATHER SERVICE GREEN BAY WI
800 PM CST SAT FEB 24 2018

WIZ005-009-010>012-018-019-250300-
NORTH CENTRAL WISCONSIN

CITY           SKY/WX    TMP DP  RH WIND       PRES   REMARKS
IRONWOOD       FLURRIES  31  22  69 E18G25    29.60F
MANITOWISH WTR NOT AVBL
ARBOR VITAE    NOT AVBL
EAGLE RIVER    CLOUDY    28  20  70 E16       29.66F
LAND O LAKES   CLOUDY    29  20  70 E16G22    29.70F
RHINELANDER    LGT SNOW  28  24  85 E21G29    29.63F FOG
PHILLIPS       LGT SNOW  28  26  91 E12G25    29.57F
ANTIGO         NOT AVBL
TOMAHAWK       NOT AVBL
MERRILL        LGT SNOW  29  26  88 E18G25    29.60F
$$

WIZ013-073-250300-
NORTHEAST WISCONSIN

CITY           SKY/WX    TMP DP  RH WIND       PRES   REMARKS
IRON MOUNTAIN  CLOUDY    30  22  72 E7        29.75F
MARINETTE      CLOUDY    33  27  78 E15G23    29.78F
$$

WIZ017-030-035>037-045-250300-
CENTRAL WISCONSIN

CITY           SKY/WX    TMP DP  RH WIND       PRES   REMARKS
MEDFORD        NOT AVBL
WAUSAU         MIX PCPN  29  25  85 E18G31    29.59F FOG
MOSINEE        NOT AVBL
MARSHFIELD     LGT SNOW  31  29  92 SE22G31   29.56F FOG
WISC RAPIDS    FRZ RAIN  32  28  85 SE18G28   29.61F FOG
STEVENS POINT  NOT AVBL
WAUPACA        NOT AVBL
SHAWANO        LGT SNOW  32  28  85 E12G21    29.71F
CLINTONVILLE   MIX PCPN  31  28  85 E12G21    29.69F
WAUTOMA        FRZ RAIN  32  30  92 E15G23    29.63F FOG
$$

WIZ038-039-048-051-250300-
FOX VALLEY

CITY           SKY/WX    TMP DP  RH WIND       PRES   REMARKS
NWS GREEN BAY  LGT RAIN  34  29  82 E8        29.72F
APPLETON       LGT RAIN  32  27  80 E12G20    29.68F
OSHKOSH        LGT RAIN  33  31  92 E16       29.66F FOG
FOND DU LAC    MIX PCPN  36  32  85 SE18      29.66F
$$

WIZ022-050-052-250300-
EAST CENTRAL WISCONSIN

CITY           SKY/WX    TMP DP  RH WIND       PRES   REMARKS
EPHRAIM        NOT AVBL
WASHINGTON ISL NOT AVBL
STURGEON BAY   CLOUDY    34  29  82 E10       29.77F
MANITOWOC      LGT RAIN  34  32  92 E18       29.74F FOG
SHEBOYGAN      LGT RAIN  34  34 100 E16G22    29.72F FOG
$$

LMZ563-521-522-541>543-250300-
LAKESHORE

STATION/POSITION TIME  TEMP    WIND        PRES    VSBY  WAVE
                       AIR SEA DIR/SP/G                  HT/PER
                 (UTC) (F)     (DEG/KT/KT) (MB)    (MI)  (FT/S)
SHEBOYGAN LKSHOR 0100   36     100/ 23/ 27 1008.7F
KEWAUNEE LKSHORE 0130   36     110/ 14/ 19 1008.3F
NORTHPORT PIER   0140   34                 1009.8F
SISTER BAY LKSHO 0120   33      90/ 10/ 17   N/A
MENOMINEE LKSHOR 0130   33      20/ 14/ 17 1009.6F
$$




USA.gov is the U.S. government's official web portal to all federal, state and local government web resources and services.